Location: El Corozo
(10.5833°N, 66.9667°W)
Time: 17:11:06
(UTC+00:00)

ATLAS 3B R/B - Pass Details

Date: 08 August 2024
Orbit: 940 x 1254 km, 63.8° (Epoch: 19 September)

Event Time Altitude Azimuth Distance (km) Brightness Sun altitude
Rises 09:23:52 0° 309° (NW) 4,147 5.5 -13.4°
Reaches altitude 10° 09:27:42 10° 292° (WNW) 3,142 4.7 -12.5°
Maximum altitude 09:32:29 18° 252° (WSW) 2,516 4.0 -11.4°
Drops below altitude 10° 09:37:07 10° 211° (SSW) 3,008 4.6 -10.4°
Sets 09:40:43 0° 193° (SSW) 3,905 5.3 -9.5°
